[[{"header":{"parameterUnit":"m.s-1","parameterCategory":1,"la1":30.2991,"la2":30.254,"lo1":-89.0895,"lo2":-89.0444,"dy":0.0017,"dx":0.0017,"nx":28,"ny":28,"refTime":"2025-11-16T09:00:00:Z","depth":0,"parameterNumber":2,"parameterNumberName":"U-component_of_WINDS"},"data":[0,0,0,0,0,0,0,0,0,0,0,0,0,0,0,0,0,0,0,0,0,0,0,0,0,0,0,0,0,0,0,0,0,0,0,0,0,0,0,0,0,0,0,0,0,0,0,0,0,0,0,0,0,0,0,0,0,0,-2.1152,-2.1152,0,-2.119,-2.1191,-2.1191,-2.1161,-2.116,-2.1159,-2.1157,-2.1197,-2.1199,-2.1202,0,0,0,0,0,0,0,0,0,0,0,0,0,-2.1055,-2.1057,-2.1152,-2.1152,-2.1153,-2.119,-2.1191,-2.1191,-2.1161,-2.116,-2.1158,-2.1157,-2.1196,-2.1199,-2.1202,0,0,0,0,0,0,0,0,0,0,0,0,0,-2.1096,-2.1058,-2.1152,-2.1143,-2.1142,-2.119,-2.1191,-2.1191,-2.1162,-2.116,-2.1158,-2.1156,-2.1196,-2.1199,-2.1202,-2.1261,0,0,-2.1212,-2.1214,0,0,0,0,0,0,0,0,-2.1094,-2.1099,-2.1144,-2.1143,-2.1143,-2.1169,-2.1171,-2.1215,-2.1162,-2.1154,-2.1157,-2.1155,-2.1189,-2.1193,-2.1205,-2.1263,-2.1265,-2.1213,-2.1215,-2.1216,-2.1217,0,0,0,0,0,0,0,-2.1091,-2.1098,-2.1167,-2.1144,-2.1144,-2.1137,-2.1141,-2.1179,-2.1182,-2.1155,-2.1153,-2.1158,-2.1189,-2.1201,-2.1205,-2.1266,-2.1213,-2.1216,-2.1218,-2.1219,-2.1376,-2.1378,0,0,0,0,0,0,-2.1089,-2.1095,-2.1166,-2.1168,-2.1113,-2.114,-2.1144,-2.1163,-2.1182,-2.1183,-2.1159,-2.1156,-2.1197,-2.1201,-2.1207,-2.1278,-2.1216,-2.1219,-2.1221,-2.1374,-2.1377,-2.1379,0,0,0,0,0,0,-2.1087,-2.1095,-2.1164,-2.1131,-2.114,-2.1144,-2.1165,-2.1164,-2.1177,-2.1185,-2.1186,-2.1171,-2.1195,-2.1202,-2.1248,-2.1278,-2.1221,-2.1224,-2.1371,-2.1375,-2.1378,-2.142,0,0,0,0,0,0,-2.1084,-2.1095,-2.1117,-2.1132,-2.1141,-2.1205,-2.1167,-2.1166,-2.1183,-2.1179,-2.1196,-2.1198,-2.1194,-2.1243,-2.1252,-2.1282,-2.1227,-2.1369,-2.1373,-2.1377,-2.1416,-2.1424,-2.1431,0,0,0,0,0,-2.1081,-2.1127,-2.1118,-2.1127,-2.1169,-2.1207,-2.1212,-2.1207,-2.1185,-2.1208,-2.1213,-2.1197,-2.1274,-2.1248,-2.1257,-2.1289,-2.1367,-2.1372,-2.1376,-2.1412,-2.1422,-2.1431,0,0,0,0,0,0,-2.1115,-2.1129,-2.1119,-2.1171,-2.1188,-2.1202,-2.123,-2.1218,-2.1241,-2.1237,-2.123,-2.1234,-2.1283,-2.1291,-2.1262,-2.1348,-2.1317,-2.1324,-2.1341,-2.1351,-2.1359,-2.1355,-2.1229,0,0,0,0,0,-2.1129,-2.1158,-2.1168,-2.1214,-2.1223,-2.1225,-2.1241,-2.1236,-2.1253,-2.126,-2.1269,-2.1287,-2.1315,-2.1333,-2.136,-2.1417,-2.1421,-2.1444,-2.1452,-2.1458,-2.1464,-2.1496,-2.1506,-2.1395,-2.1395,-2.1395,0,0,-2.1157,-2.1168,-2.1187,-2.1221,-2.1233,-2.1264,-2.1231,-2.1265,-2.1288,-2.1265,-2.1309,-2.1317,-2.1336,-2.1389,-2.1412,-2.1397,-2.1496,-2.1464,-2.1469,-2.1471,-2.1502,-2.1512,-2.1521,-2.1398,-2.1397,-2.1397,0,0,-2.1225,-2.1236,-2.1275,-2.1289,-2.1308,-2.1309,-2.1319,-2.1335,-2.1339,-2.1383,-2.1367,-2.1395,-2.1443,-2.1458,-2.1472,-2.1547,-2.1533,-2.1556,-2.1596,-2.1627,-2.1636,-2.1644,-2.1671,-2.168,-2.1562,-2.1562,-2.1562,0,-2.1258,-2.1303,-2.1297,-2.1332,-2.1348,-2.133,-2.137,-2.1383,-2.141,-2.1422,-2.1404,-2.1466,-2.1477,-2.1533,-2.1552,-2.1563,-2.1575,-2.1553,-2.1635,-2.1643,-2.165,-2.1676,-2.1686,-2.1565,-2.1564,-2.1564,-2.1564,0,-2.1343,-2.1375,-2.1404,-2.1431,-2.145,-2.1488,-2.1488,-2.1509,-2.1502,-2.1506,-2.1552,-2.1566,-2.1595,-2.1608,-2.1602,-2.1664,-2.1654,-2.1636,-2.1604,-2.1663,-2.1687,-2.1697,-2.1568,-2.1567,-2.1567,-2.1566,0,0,-2.1432,-2.1456,-2.1467,-2.1479,-2.1499,-2.1524,-2.1562,-2.159,-2.1608,-2.1628,-2.1659,-2.1702,-2.1686,-2.1702,-2.1697,-2.1725,-2.1784,-2.1704,-2.1704,-2.1718,-2.1853,-2.1866,-2.1878,-2.1775,-2.1777,-2.1779,-2.1852,0,-2.1501,-2.1565,-2.1561,-2.1622,-2.1652,-2.1636,-2.1668,-2.1685,-2.169,-2.1716,-2.1722,-2.1752,-2.1728,-2.1738,-2.1764,-2.1771,-2.1811,-2.1766,-2.1805,-2.1806,-2.18,-2.189,-2.1904,-2.1972,-2.1861,-2.1863,-2.1864,0,-2.1589,-2.1612,-2.1675,-2.1692,-2.1705,-2.1734,-2.1761,-2.1786,-2.1805,-2.1807,-2.1825,-2.1817,-2.1856,-2.1824,-2.1877,-2.1847,-2.1863,-2.1869,-2.1871,-2.1874,-2.1838,-2.1896,-2.1994,-2.2004,-2.1879,-2.1877,-2.1876,0,-2.1648,-2.1694,-2.1739,-2.175,-2.1771,-2.1792,-2.1802,-2.1819,-2.1837,-2.186,-2.1872,-2.19,-2.1915,-2.1937,-2.1937,-2.1914,-2.1992,-2.1959,-2.1994,-2.1995,-2.2011,-2.201,-2.2113,-2.2022,-2.2022,-2.2022,-2.2021,0,-2.1724,-2.1764,-2.1765,-2.1793,-2.1837,-2.1833,-2.1877,-2.1885,-2.1901,-2.193,-2.1918,-2.1946,-2.1944,-2.1972,-2.1973,-2.2017,-2.2024,-2.2027,-2.2027,-2.2028,-2.2028,-2.2038,-2.2033,-2.2024,-2.2024,-2.2023,-2.2023,0,-2.1797,-2.18,-2.1847,-2.1863,-2.1868,-2.19,-2.1914,-2.1941,-2.1945,-2.1982,-2.1991,-2.1998,-2.203,-2.2033,-2.2071,-2.2071,-2.2125,-2.212,-2.2119,-2.2118,-2.2153,-2.215,-2.2266,-2.2281,-2.218,-2.2181,-2.2182,0,-2.1846,-2.1876,-2.1896,-2.1914,-2.1925,-2.1955,-2.1973,-2.1971,-2.1991,-2.2016,-2.2039,-2.2071,-2.2096,-2.215,-2.2158,-2.2188,-2.2183,-2.2221,-2.2187,-2.2188,-2.2184,-2.2182,-2.2185,-2.2228,-2.2229,-2.223,-2.2231,0,-2.1932,-2.1932,-2.1958,-2.1986,-2.2008,-2.203,-2.205,-2.2066,-2.2066,-2.2089,-2.2122,-2.2142,-2.2181,-2.2213,-2.2242,-2.2253,-2.2243,-2.2242,-2.2251,-2.2253,-2.2251,-2.2253,-2.2137,-2.2239,-2.2238,-2.2237,-2.2237,-2.2237,-2.1994,-2.2021,-2.2039,-2.2069,-2.2084,-2.2103,-2.2129,-2.2137,-2.2164,-2.2196,-2.2193,-2.2231,-2.225,-2.2288,-2.2301,-2.2331,-2.2318,-2.2332,-2.2335,-2.2339,-2.2342,-2.2247,-2.2336,-2.2336,-2.2336,-2.2335,-2.2335,0,-2.208,-2.2091,-2.2119,-2.2148,-2.2172,-2.216,-2.2182,-2.2203,-2.2236,-2.2255,-2.228,-2.2319,-2.235,-2.2362,-2.2392,-2.2414,-2.241,-2.2422,-2.242,-2.2423,-2.2352,-2.2341,-2.2425,-2.2425,-2.2425,-2.2425,-2.2425,-2.2425,-2.2128,-2.2172,-2.2174,-2.2226,-2.2237,-2.2273,-2.2287,-2.2305,-2.232,-2.2364,-2.239,-2.2397,-2.2414,-2.2446,-2.2474,-2.2477,-2.2489,-2.2503,-2.2504,-2.2437,-2.2428,-2.2419,-2.2409,-2.2506,-2.2506,-2.2572,-2.2573,-2.2573]},{"header":{"parameterUnit":"m.s-1","parameterCategory":1,"la1":30.2991,"la2":30.254,"lo1":-89.0895,"lo2":-89.0444,"dy":0.0017,"dx":0.0017,"nx":28,"ny":28,"refTime":"2025-11-16T09:00:00:Z","depth":0,"parameterNumber":3,"parameterNumberName":"V-component_of_WINDS"},"data":[0,0,0,0,0,0,0,0,0,0,0,0,0,0,0,0,0,0,0,0,0,0,0,0,0,0,0,0,0,0,0,0,0,0,0,0,0,0,0,0,0,0,0,0,0,0,0,0,0,0,0,0,0,0,0,0,0,0,2.2914,2.2914,0,2.2952,2.2952,2.2953,2.2958,2.2958,2.2957,2.2957,2.2993,2.2994,2.2995,0,0,0,0,0,0,0,0,0,0,0,0,0,2.2843,2.2844,2.2914,2.2914,2.2915,2.2952,2.2952,2.2953,2.2958,2.2958,2.2957,2.2957,2.2992,2.2994,2.2995,0,0,0,0,0,0,0,0,0,0,0,0,0,2.2876,2.2844,2.2914,2.2922,2.2923,2.2952,2.2952,2.2953,2.2958,2.2958,2.2957,2.2957,2.2992,2.2994,2.2995,2.3018,0,0,2.3001,2.3002,0,0,0,0,0,0,0,0,2.2874,2.2879,2.292,2.2921,2.2923,2.295,2.294,2.2975,2.2958,2.2945,2.2957,2.2956,2.2979,2.2981,2.299,2.3019,2.3021,2.3001,2.3003,2.3003,2.3004,0,0,0,0,0,0,0,2.2872,2.2877,2.2929,2.2921,2.2922,2.2923,2.2927,2.2947,2.2964,2.2946,2.2946,2.2951,2.2979,2.2988,2.2991,2.3021,2.3001,2.3003,2.3004,2.3005,2.3072,2.3073,0,0,0,0,0,0,2.2869,2.2875,2.2928,2.293,2.2897,2.2924,2.2929,2.2941,2.2964,2.2967,2.2951,2.2951,2.2985,2.2988,2.2992,2.302,2.3003,2.3005,2.3006,2.3071,2.3072,2.3073,0,0,0,0,0,0,2.2867,2.2873,2.2926,2.2903,2.291,2.2926,2.294,2.2942,2.2951,2.2968,2.2971,2.2957,2.2985,2.2989,2.3012,2.3021,2.3006,2.3008,2.3071,2.3072,2.3073,2.3077,0,0,0,0,0,0,2.2865,2.2873,2.2882,2.2903,2.2911,2.2946,2.2941,2.2944,2.2955,2.2955,2.2974,2.2977,2.2984,2.3009,2.3014,2.3024,2.3009,2.307,2.3071,2.3072,2.3076,2.3078,2.3079,0,0,0,0,0,2.2862,2.2881,2.2882,2.2889,2.2923,2.2947,2.2951,2.296,2.2956,2.2965,2.2976,2.2976,2.3019,2.3011,2.3016,2.3027,2.3069,2.3071,2.3072,2.3075,2.3077,2.3079,0,0,0,0,0,0,2.2859,2.2883,2.2886,2.2911,2.2927,2.2947,2.2959,2.2962,2.2978,2.2978,2.2987,2.2991,2.3014,2.3023,2.3013,2.3051,2.3044,2.3046,2.3044,2.3046,2.3048,2.3046,2.3011,0,0,0,0,0,2.2861,2.288,2.29,2.292,2.2928,2.2942,2.2953,2.2959,2.2975,2.2981,2.2994,2.3008,2.3025,2.3036,2.3053,2.3077,2.3081,2.3087,2.3089,2.309,2.3092,2.3106,2.3109,2.3078,2.3078,2.3077,0,0,2.2866,2.2882,2.2892,2.292,2.2933,2.2951,2.2948,2.2967,2.298,2.2984,2.3007,2.3016,2.3033,2.3057,2.3068,2.3065,2.3102,2.3092,2.3093,2.3094,2.3108,2.3111,2.3114,2.3078,2.3078,2.3078,0,0,2.2884,2.2898,2.2917,2.293,2.295,2.296,2.2964,2.2985,2.2992,2.3015,2.3018,2.3033,2.3062,2.3075,2.3085,2.3108,2.311,2.3113,2.3123,2.3136,2.3139,2.3141,2.315,2.3153,2.3115,2.3115,2.3115,0,2.2887,2.2916,2.2926,2.2946,2.2958,2.2963,2.2983,2.2995,2.3018,2.3026,2.3023,2.306,2.3071,2.3099,2.3105,2.3112,2.3118,2.3111,2.3138,2.314,2.3142,2.3151,2.3155,2.3116,2.3116,2.3116,2.3116,0,2.2919,2.2939,2.2952,2.2976,2.299,2.3009,2.3022,2.3034,2.3038,2.3048,2.3071,2.3086,2.3106,2.3112,2.3116,2.314,2.3138,2.3136,2.313,2.3146,2.3154,2.3158,2.3116,2.3116,2.3116,2.3116,0,0,2.2936,2.2967,2.2972,2.2983,2.3006,2.3021,2.304,2.3061,2.3071,2.3087,2.3104,2.3128,2.3127,2.3139,2.3144,2.3156,2.3175,2.3153,2.3153,2.3157,2.3202,2.3205,2.3208,2.3176,2.3176,2.3177,2.3201,0,2.2958,2.2994,2.3004,2.3034,2.3053,2.3058,2.3075,2.309,2.31,2.3116,2.3126,2.3144,2.314,2.3147,2.3159,2.317,2.3184,2.3168,2.3191,2.3191,2.3187,2.3213,2.3215,2.3237,2.3205,2.3205,2.3206,0,2.2988,2.3006,2.3039,2.306,2.3068,2.3083,2.3104,2.3119,2.3136,2.3142,2.3156,2.316,2.318,2.3172,2.3199,2.3188,2.3198,2.3205,2.3206,2.3209,2.32,2.3217,2.3244,2.3248,2.3211,2.321,2.321,0,2.2998,2.3031,2.3055,2.3065,2.309,2.31,2.3111,2.3128,2.314,2.3157,2.3165,2.3184,2.3194,2.3208,2.3217,2.3211,2.3244,2.3237,2.3249,2.3249,2.3257,2.3256,2.3287,2.3262,2.3262,2.3262,2.3261,0,2.3022,2.3042,2.306,2.3075,2.3098,2.3109,2.313,2.3141,2.3156,2.3172,2.3177,2.3192,2.3203,2.322,2.3227,2.3249,2.3253,2.3258,2.326,2.3258,2.3258,2.3265,2.3264,2.3262,2.3262,2.3262,2.3262,0,2.3038,2.3051,2.3078,2.31,2.3106,2.3121,2.3139,2.3154,2.3163,2.3184,2.319,2.3205,2.3224,2.3235,2.3259,2.3264,2.3289,2.3289,2.3283,2.3284,2.3297,2.3296,2.3334,2.334,2.331,2.331,2.331,0,2.3053,2.3068,2.3092,2.3104,2.3116,2.3135,2.3148,2.3159,2.3172,2.3193,2.3205,2.3225,2.3242,2.3273,2.3285,2.3304,2.3305,2.3317,2.3308,2.3306,2.3307,2.3306,2.3308,2.3319,2.332,2.332,2.332,0,2.3078,2.3084,2.3103,2.3124,2.314,2.3157,2.3173,2.3182,2.3196,2.321,2.3231,2.3245,2.327,2.329,2.331,2.332,2.3322,2.3323,2.3327,2.3326,2.3322,2.3325,2.3289,2.3322,2.3322,2.3322,2.3322,2.3321,2.3094,2.3109,2.3128,2.3149,2.3163,2.3179,2.3194,2.3206,2.3224,2.3247,2.3252,2.3274,2.3291,2.3318,2.3328,2.3345,2.3343,2.3349,2.335,2.3352,2.3353,2.3319,2.3349,2.3349,2.3349,2.3349,2.3349,0,2.312,2.3133,2.3153,2.3177,2.3193,2.3195,2.3214,2.3227,2.3247,2.3263,2.328,2.3304,2.3324,2.3338,2.3358,2.3369,2.3371,2.3374,2.3374,2.3376,2.3353,2.3348,2.3372,2.3372,2.3372,2.3372,2.3372,2.3372,2.3136,2.3161,2.3169,2.3201,2.3214,2.3237,2.3248,2.3262,2.3275,2.3302,2.3319,2.3329,2.3344,2.3365,2.3383,2.3387,2.3394,2.3397,2.3401,2.338,2.3377,2.3375,2.3371,2.3399,2.3399,2.3423,2.3423,2.3423]}]]